Temp
-17 -18 -18 -18 -18 -18 -18 -18 -19 -19 -19 -19 -19 -19 -19 -19 -19 -19 -20 -20 -20 -20 -20 -21 -21 -21 -21 -21 -22 -22 -22 -22 -22 -22 -22 -22 -22 -22 -22 -22 -22 -22 -22 -22 -22 -22 -22 -22 -22 -22 -22 -22 -22 -22 -22 -23 -23 -23 -23 -23 -23 -23 -23
-18 -18 -18 -18 -18 -18 -19 -19 -19 -19 -19 -19 -19 -19 -19 -19 -19 -20 -20 -20 -20 -21 -21 -21 -21 -21 -22 -22 -22 -22 -22 -22 -22 -23 -22 -22 -22 -22 -23 -23 -23 -23 -22 -22 -22 -22 -22 -23 -23 -23 -23 -23 -23 -23 -23 -23 -23 -23 -23 -23 -23 -23 -23
-18 -18 -18 -18 -19 -19 -19 -19 -19 -19 -19 -19 -19 -19 -19 -20 -20 -20 -20 -21 -21 -21 -21 -21 -22 -22 -22 -22 -22 -22 -23 -23 -23 -23 -23 -23 -23 -23 -23 -23 -23 -23 -23 -23 -23 -23 -23 -23 -23 -23 -23 -23 -23 -23 -23 -23 -23 -23 -23 -23 -23 -24 -24
-18 -18 -19 -19 -19 -19 -19 -20 -20 -20 -20 -20 -20 -20 -20 -20 -20 -21 -21 -21 -21 -21 -22 -22 -22 -22 -23 -23 -23 -23 -23 -23 -23 -23 -23 -23 -23 -23 -23 -23 -23 -23 -23 -23 -23 -23 -23 -24 -24 -24 -24 -24 -24 -24 -24 -24 -24 -24 -24 -24 -24 -24 -24
-19 -19 -19 -19 -20 -20 -20 -20 -20 -20 -20 -20 -20 -20 -20 -20 -21 -21 -21 -21 -22 -22 -22 -23 -23 -23 -23 -23 -23 -23 -23 -23 -23 -23 -23 -23 -23 -23 -23 -23 -23 -23 -24 -24 -24 -24 -24 -24 -24 -24 -24 -24 -24 -24 -24 -24 -24 -24 -24 -24 -24 -24 -24
-19 -19 -20 -20 -20 -20 -20 -20 -20 -20 -20 -20 -20 -20 -20 -21 -21 -21 -21 -22 -22 -22 -23 -23 -23 -23 -23 -23 -23 -23 -23 -23 -23 -23 -23 -23 -23 -23 -24 -24 -24 -24 -24 -24 -24 -24 -24 -24 -24 -24 -24 -24 -24 -24 -24 -24 -24 -24 -24 -24 -24 -24 -24
-20 -20 -20 -20 -20 -20 -20 -20 -21 -21 -21 -21 -21 -21 -21 -21 -21 -21 -22 -22 -22 -23 -23 -23 -23 -24 -24 -23 -23 -23 -23 -23 -23 -24 -24 -24 -24 -24 -24 -24 -24 -24 -24 -24 -24 -24 -24 -24 -24 -24 -24 -24 -24 -24 -24 -24 -24 -24 -25 -25 -25 -25 -25
-20 -20 -20 -20 -21 -21 -21 -21 -21 -21 -21 -21 -21 -21 -21 -21 -21 -22 -22 -23 -23 -23 -23 -24 -24 -24 -24 -24 -24 -24 -24 -24 -24 -24 -24 -24 -24 -24 -24 -24 -24 -24 -24 -24 -24 -25 -25 -25 -25 -24 -24 -24 -24 -24 -25 -25 -25 -25 -25 -25 -25 -25 -25
-20 -20 -20 -21 -21 -21 -21 -21 -21 -21 -21 -21 -21 -21 -22 -22 -22 -22 -23 -23 -23 -24 -24 -24 -24 -24 -24 -24 -24 -24 -24 -24 -24 -24 -24 -24 -24 -24 -24 -25 -25 -25 -25 -25 -25 -25 -25 -25 -25 -25 -25 -25 -25 -25 -25 -25 -25 -25 -25 -25 -25 -25 -25
-20 -21 -21 -21 -21 -21 -21 -21 -21 -21 -22 -22 -22 -22 -22 -22 -22 -23 -24 -24 -24 -24 -24 -24 -24 -24 -24 -24 -24 -24 -24 -24 -24 -24 -24 -24 -24 -25 -25 -25 -25 -25 -25 -25 -25 -25 -25 -25 -25 -25 -25 -25 -25 -25 -25 -25 -25 -25 -25 -25 -25 -25 -25
-20 -21 -21 -21 -21 -21 -21 -21 -22 -22 -22 -22 -22 -22 -22 -22 -23 -23 -24 -24 -24 -24 -24 -24 -24 -24 -24 -24 -24 -24 -24 -24 -25 -24 -24 -24 -24 -25 -25 -25 -25 -25 -25 -25 -25 -25 -25 -25 -25 -25 -25 -25 -25 -25 -25 -25 -25 -25 -25 -25 -25 -25 -25
-21 -21 -21 -21 -21 -21 -21 -22 -22 -22 -22 -22 -22 -22 -23 -23 -23 -23 -24 -24 -24 -24 -24 -24 -24 -24 -24 -24 -25 -24 -25 -25 -25 -25 -24 -24 -25 -25 -25 -25 -25 -25 -25 -25 -25 -25 -25 -25 -25 -25 -25 -25 -25 -25 -25 -25 -25 -25 -25 -25 -25 -25 -25
-21 -21 -21 -21 -21 -22 -22 -22 -22 -22 -22 -22 -23 -23 -23 -23 -23 -24 -24 -24 -24 -24 -24 -24 -24 -24 -24 -24 -24 -25 -25 -25 -25 -25 -25 -25 -25 -25 -25 -25 -25 -25 -25 -25 -25 -25 -25 -25 -25 -26 -26 -25 -25 -25 -25 -25 -25 -25 -25 -25 -25 -25 -25
-21 -21 -21 -22 -22 -22 -22 -22 -22 -22 -23 -23 -23 -24 -24 -24 -24 -24 -24 -24 -25 -25 -25 -24 -24 -24 -24 -25 -25 -25 -25 -25 -25 -25 -25 -25 -25 -25 -25 -25 -25 -25 -25 -25 -25 -25 -25 -26 -26 -26 -26 -25 -25 -25 -25 -25 -25 -25 -25 -25 -25 -25 -25
-21 -21 -22 -22 -22 -22 -22 -22 -23 -23 -23 -24 -24 -24 -24 -24 -24 -24 -24 -24 -24 -25 -25 -24 -24 -25 -25 -25 -25 -25 -25 -25 -25 -25 -25 -25 -25 -25 -25 -25 -25 -25 -25 -25 -25 -25 -26 -26 -26 -26 -25 -25 -25 -25 -25 -25 -25 -25 -25 -25 -25 -25 -25
-21 -22 -22 -22 -22 -22 -22 -23 -23 -24 -24 -24 -24 -24 -24 -24 -24 -24 -24 -24 -24 -24 -24 -24 -25 -25 -25 -25 -25 -25 -25 -25 -25 -25 -25 -25 -25 -25 -25 -25 -25 -25 -25 -25 -25 -25 -26 -26 -26 -26 -25 -25 -25 -25 -25 -25 -25 -25 -25 -25 -25 -25 -25
-22 -22 -22 -22 -22 -22 -23 -23 -24 -24 -24 -24 -24 -24 -24 -24 -24 -24 -24 -24 -24 -24 -24 -24 -25 -25 -25 -25 -25 -25 -25 -25 -25 -25 -25 -25 -25 -25 -25 -25 -25 -25 -25 -25 -25 -25 -25 -25 -25 -26 -26 -26 -26 -25 -25 -25 -25 -25 -25 -25 -25 -25 -26
-22 -22 -22 -22 -23 -23 -24 -24 -24 -24 -24 -24 -24 -24 -24 -24 -24 -24 -24 -24 -24 -24 -24 -24 -25 -25 -25 -25 -25 -25 -25 -25 -25 -25 -25 -25 -25 -25 -25 -25 -25 -25 -25 -25 -25 -25 -25 -25 -25 -25 -26 -26 -26 -25 -25 -25 -25 -25 -25 -25 -25 -25 -26
-22 -22 -23 -23 -23 -24 -24 -24 -24 -24 -24 -24 -24 -24 -24 -24 -24 -24 -24 -25 -25 -25 -25 -25 -25 -25 -25 -25 -25 -25 -25 -25 -25 -25 -25 -25 -25 -25 -25 -25 -25 -25 -25 -25 -25 -25 -25 -25 -25 -26 -26 -26 -26 -26 -26 -26 -26 -25 -25 -25 -25 -25 -25
-22 -23 -23 -23 -24 -24 -24 -24 -24 -24 -24 -24 -24 -24 -24 -24 -24 -24 -24 -25 -25 -25 -25 -25 -25 -25 -25 -25 -25 -25 -25 -25 -25 -25 -25 -25 -25 -25 -25 -25 -25 -25 -25 -25 -25 -25 -26 -26 -26 -26 -26 -26 -26 -26 -26 -26 -26 -26 -26 -25 -25 -25 -25
-23 -23 -23 -24 -24 -24 -24 -25 -25 -25 -25 -24 -24 -24 -24 -24 -24 -24 -25 -25 -25 -25 -25 -25 -25 -25 -25 -25 -25 -25 -25 -25 -25 -25 -25 -25 -25 -25 -25 -25 -25 -25 -25 -25 -25 -25 -26 -26 -26 -26 -26 -26 -26 -26 -26 -26 -26 -26 -26 -26 -26 -26 -26
-23 -23 -24 -24 -24 -24 -25 -25 -25 -25 -25 -25 -24 -24 -24 -24 -24 -24 -24 -25 -25 -25 -25 -25 -25 -25 -25 -25 -25 -25 -25 -25 -25 -25 -25 -25 -25 -25 -25 -25 -25 -25 -25 -25 -25 -26 -26 -26 -26 -26 -26 -26 -26 -26 -26 -26 -26 -26 -26 -26 -26 -26 -26
-23 -24 -24 -24 -24 -25 -25 -25 -25 -25 -25 -25 -25 -25 -24 -24 -24 -24 -25 -25 -25 -25 -25 -25 -25 -25 -25 -25 -25 -25 -25 -25 -25 -25 -25 -25 -25 -25 -25 -25 -25 -25 -25 -25 -25 -26 -26 -26 -26 -26 -26 -26 -26 -26 -26 -26 -26 -26 -26 -26 -26 -26 -26
-24 -24 -24 -24 -25 -25 -25 -25 -25 -25 -25 -25 -25 -25 -25 -25 -25 -25 -25 -25 -25 -25 -25 -25 -25 -25 -25 -25 -25 -25 -25 -25 -25 -25 -25 -25 -25 -25 -25 -25 -25 -25 -25 -26 -26 -26 -26 -26 -26 -26 -26 -26 -26 -26 -26 -26 -26 -26 -26 -26 -26 -26 -26
-24 -24 -24 -24 -25 -25 -25 -25 -25 -25 -25 -25 -25 -25 -25 -25 -25 -25 -25 -25 -25 -25 -25 -25 -25 -25 -25 -25 -25 -25 -25 -25 -25 -25 -25 -25 -25 -25 -25 -25 -25 -26 -26 -26 -26 -26 -26 -26 -26 -26 -26 -26 -26 -26 -26 -26 -26 -26 -26 -26 -26 -26 -26
-24 -24 -24 -25 -25 -25 -25 -25 -25 -25 -25 -25 -25 -25 -25 -25 -25 -25 -25 -25 -25 -25 -25 -25 -25 -25 -25 -25 -25 -25 -25 -25 -25 -25 -25 -25 -25 -25 -25 -25 -25 -26 -26 -26 -26 -26 -26 -26 -26 -26 -26 -26 -26 -26 -26 -27 -27 -27 -26 -26 -26 -26 -26
-24 -25 -25 -25 -25 -25 -25 -25 -25 -25 -25 -25 -25 -25 -25 -25 -25 -25 -25 -25 -25 -25 -25 -25 -25 -25 -25 -25 -25 -25 -25 -25 -25 -25 -25 -25 -25 -25 -26 -26 -26 -26 -26 -26 -26 -26 -26 -26 -26 -26 -26 -26 -26 -26 -27 -27 -27 -27 -27 -26 -26 -26 -26
-25 -25 -25 -25 -25 -25 -25 -25 -25 -25 -25 -25 -25 -25 -25 -25 -25 -25 -25 -25 -25 -25 -25 -25 -25 -25 -25 -25 -25 -25 -25 -25 -25 -26 -26 -26 -26 -26 -26 -26 -26 -26 -26 -26 -26 -26 -26 -26 -26 -26 -27 -27 -27 -27 -27 -27 -27 -27 -27 -27 -27 -27 -26
-25 -25 -25 -25 -25 -25 -25 -25 -25 -25 -25 -25 -25 -25 -25 -25 -25 -25 -25 -25 -25 -25 -25 -25 -25 -25 -26 -26 -26 -26 -26 -26 -26 -26 -26 -26 -26 -26 -26 -26 -26 -26 -26 -26 -26 -26 -26 -26 -26 -26 -26 -27 -27 -27 -27 -27 -27 -27 -27 -27 -27 -27 -27
-25 -25 -25 -25 -25 -25 -25 -25 -25 -25 -25 -25 -25 -25 -25 -25 -25 -25 -25 -25 -25 -25 -26 -26 -26 -26 -26 -26 -26 -26 -26 -26 -26 -26 -26 -26 -26 -26 -26 -26 -26 -26 -26 -26 -26 -26 -26 -26 -26 -26 -26 -27 -27 -27 -27 -27 -27 -27 -27 -27 -27 -27 -27
-25 -25 -25 -25 -25 -25 -25 -25 -25 -25 -25 -25 -25 -25 -25 -25 -25 -25 -25 -26 -26 -26 -26 -26 -26 -26 -26 -26 -27 -27 -27 -27 -27 -27 -27 -27 -27 -26 -26 -26 -26 -26 -26 -26 -26 -26 -26 -26 -26 -26 -27 -27 -27 -27 -27 -27 -27 -28 -28 -28 -28 -28 -28
-25 -25 -25 -25 -25 -25 -25 -25 -25 -25 -25 -25 -25 -25 -25 -26 -26 -26 -26 -26 -26 -26 -26 -26 -27 -27 -27 -27 -27 -27 -27 -27 -27 -27 -27 -27 -27 -27 -27 -27 -27 -27 -27 -27 -27 -27 -27 -27 -27 -27 -27 -27 -27 -27 -28 -28 -28 -28 -28 -28 -28 -28 -28
-25 -25 -25 -25 -25 -25 -25 -25 -26 -26 -26 -26 -26 -26 -26 -26 -26 -26 -26 -26 -27 -27 -27 -27 -27 -27 -27 -27 -27 -28 -28 -28 -28 -27 -27 -27 -27 -27 -27 -27 -27 -27 -27 -27 -27 -27 -27 -27 -27 -27 -27 -27 -28 -28 -28 -28 -28 -28 -28 -28 -28 -28 -29
-26 -26 -26 -26 -26 -26 -26 -26 -26 -26 -26 -26 -27 -27 -27 -27 -27 -27 -27 -27 -27 -27 -28 -28 -28 -28 -28 -28 -28 -28 -28 -28 -28 -28 -28 -28 -28 -28 -28 -28 -28 -28 -28 -28 -28 -28 -28 -28 -28 -28 -28 -28 -28 -28 -28 -28 -29 -29 -29 -29 -29 -29 -29
-26 -26 -26 -26 -26 -27 -27 -27 -27 -27 -27 -27 -27 -27 -27 -28 -28 -28 -28 -28 -28 -28 -28 -28 -29 -29 -29 -29 -29 -29 -29 -29 -29 -29 -29 -29 -29 -29 -29 -29 -29 -29 -28 -28 -28 -29 -29 -29 -29 -29 -29 -29 -29 -29 -29 -29 -29 -29 -29 -29 -29 -29 -30
-26 -27 -27 -27 -27 -27 -27 -27 -27 -28 -28 -28 -28 -28 -28 -28 -28 -28 -28 -28 -29 -29 -29 -29 -29 -29 -29 -29 -29 -29 -30 -30 -30 -30 -29 -29 -29 -29 -29 -29 -29 -29 -29 -29 -29 -29 -29 -29 -29 -30 -30 -30 -29 -29 -29 -29 -29 -29 -30 -30 -30 -30 -30
Height
5653 5651 5649 5646 5644 5642 5640 5637 5635 5632 5630 5628 5626 5624 5622 5620 5618 5614 5612 5610 5608 5606 5603 5601 5599 5597 5594 5592 5591 5589 5587 5586 5584 5582 5581 5580 5579 5578 5577 5576 5575 5576 5577 5579 5578 5577 5575 5574 5574 5574 5573 5573 5573 5573 5572 5572 5573 5574 5575 5576 5577 5577 5577
5646 5643 5641 5639 5636 5634 5632 5630 5628 5625 5623 5621 5619 5617 5614 5612 5610 5607 5604 5602 5599 5597 5595 5592 5590 5588 5585 5583 5582 5580 5578 5577 5575 5574 5573 5572 5570 5570 5568 5567 5566 5566 5567 5569 5569 5568 5567 5565 5565 5565 5565 5565 5565 5565 5565 5564 5564 5566 5567 5568 5569 5569 5569
5639 5636 5634 5632 5629 5627 5624 5622 5620 5618 5615 5613 5611 5609 5606 5603 5601 5599 5596 5593 5591 5589 5586 5584 5581 5579 5577 5575 5573 5572 5570 5568 5567 5565 5564 5563 5562 5561 5560 5558 5557 5556 5557 5559 5559 5559 5558 5557 5556 5557 5557 5556 5557 5557 5557 5557 5557 5557 5558 5559 5560 5561 5561
5632 5629 5627 5624 5622 5619 5617 5615 5612 5610 5608 5605 5603 5600 5598 5595 5593 5590 5588 5585 5583 5580 5577 5575 5573 5570 5568 5567 5565 5563 5561 5560 5558 5557 5556 5554 5553 5552 5551 5550 5548 5547 5548 5549 5549 5549 5549 5548 5548 5549 5549 5548 5548 5549 5549 5549 5549 5549 5549 5550 5551 5551 5552
5624 5621 5619 5616 5614 5611 5609 5607 5604 5602 5599 5597 5594 5592 5589 5587 5585 5582 5579 5577 5574 5571 5569 5566 5564 5562 5559 5558 5556 5554 5553 5551 5550 5548 5547 5546 5545 5544 5542 5541 5540 5539 5539 5540 5540 5540 5540 5540 5540 5541 5541 5540 5540 5541 5541 5541 5541 5541 5541 5542 5542 5543 5544
5616 5613 5611 5608 5606 5603 5601 5599 5596 5594 5591 5589 5586 5583 5581 5579 5577 5574 5571 5568 5565 5562 5560 5558 5555 5553 5551 5549 5548 5546 5544 5543 5541 5540 5539 5538 5536 5535 5534 5533 5532 5532 5531 5532 5532 5532 5533 5533 5533 5532 5532 5533 5533 5532 5533 5533 5533 5533 5533 5534 5535 5535 5536
5608 5605 5603 5600 5598 5595 5593 5591 5588 5585 5583 5580 5578 5575 5573 5570 5568 5565 5562 5559 5556 5554 5551 5549 5546 5544 5542 5541 5539 5538 5536 5534 5533 5532 5530 5529 5528 5527 5526 5526 5525 5525 5524 5524 5525 5525 5525 5525 5525 5525 5525 5525 5524 5524 5525 5525 5526 5526 5526 5526 5527 5528 5528
5600 5597 5595 5592 5590 5587 5585 5582 5579 5577 5574 5572 5569 5567 5564 5561 5559 5556 5553 5550 5547 5545 5542 5540 5538 5536 5534 5533 5531 5530 5528 5527 5525 5524 5523 5522 5521 5520 5520 5519 5519 5518 5518 5518 5518 5518 5518 5518 5518 5518 5518 5517 5517 5517 5518 5518 5518 5518 5519 5519 5520 5520 5521
5592 5589 5587 5584 5582 5579 5576 5574 5571 5568 5566 5563 5561 5558 5555 5552 5549 5546 5544 5541 5538 5536 5534 5532 5530 5528 5526 5525 5524 5522 5521 5519 5518 5516 5516 5515 5515 5514 5514 5513 5512 5512 5511 5511 5510 5510 5510 5509 5510 5510 5509 5509 5509 5509 5509 5509 5510 5511 5511 5512 5512 5513 5514
5584 5581 5579 5576 5573 5571 5568 5565 5562 5559 5557 5555 5552 5549 5546 5543 5540 5537 5535 5533 5530 5528 5526 5524 5522 5520 5519 5518 5516 5515 5513 5512 5511 5510 5509 5509 5508 5508 5507 5507 5506 5505 5505 5504 5503 5502 5502 5501 5502 5502 5501 5501 5501 5501 5501 5502 5502 5503 5504 5504 5505 5506 5507
5576 5573 5570 5568 5565 5562 5559 5557 5553 5551 5548 5545 5542 5539 5537 5534 5531 5529 5526 5524 5522 5520 5518 5516 5515 5513 5512 5510 5508 5507 5506 5505 5504 5504 5503 5503 5502 5501 5500 5500 5499 5498 5497 5496 5495 5494 5494 5493 5494 5494 5493 5493 5493 5494 5494 5494 5495 5496 5497 5497 5498 5499 5500
5568 5565 5562 5559 5556 5554 5551 5548 5545 5542 5539 5536 5533 5530 5528 5525 5523 5520 5517 5515 5514 5512 5510 5509 5508 5506 5504 5502 5501 5500 5499 5498 5498 5497 5497 5496 5495 5494 5493 5493 5492 5491 5490 5488 5487 5486 5486 5486 5485 5486 5486 5486 5486 5486 5486 5487 5488 5489 5490 5490 5491 5492 5493
5559 5556 5553 5550 5548 5545 5542 5539 5536 5532 5529 5526 5524 5522 5520 5517 5515 5512 5509 5507 5505 5503 5502 5501 5500 5498 5497 5495 5494 5493 5492 5491 5491 5490 5489 5489 5488 5487 5486 5485 5485 5483 5482 5480 5479 5479 5478 5478 5477 5478 5478 5478 5478 5479 5480 5480 5481 5482 5482 5483 5484 5485 5486
5551 5548 5544 5542 5539 5537 5534 5530 5526 5523 5520 5518 5516 5514 5512 5510 5507 5504 5501 5499 5497 5495 5494 5493 5492 5490 5489 5488 5486 5486 5485 5484 5484 5483 5482 5481 5481 5480 5479 5478 5477 5476 5474 5473 5472 5471 5470 5470 5470 5470 5470 5471 5472 5472 5473 5473 5474 5475 5476 5476 5478 5479 5479
5542 5540 5536 5533 5531 5528 5525 5521 5517 5514 5512 5510 5508 5506 5504 5502 5500 5498 5495 5492 5490 5488 5487 5486 5485 5483 5482 5481 5479 5478 5477 5477 5476 5476 5475 5474 5473 5473 5472 5471 5470 5468 5467 5466 5465 5464 5463 5463 5463 5463 5463 5464 5465 5466 5466 5467 5468 5469 5469 5470 5471 5471 5472
5534 5532 5528 5525 5522 5519 5516 5512 5509 5506 5504 5502 5501 5499 5497 5495 5493 5491 5488 5486 5484 5482 5480 5479 5478 5476 5475 5474 5472 5471 5470 5470 5469 5468 5467 5467 5466 5466 5465 5464 5463 5462 5460 5459 5458 5457 5457 5456 5456 5456 5457 5457 5458 5459 5460 5460 5461 5462 5463 5463 5463 5464 5465
5526 5523 5520 5516 5513 5510 5507 5504 5501 5499 5497 5495 5493 5491 5490 5488 5486 5484 5481 5479 5477 5475 5474 5472 5471 5469 5468 5467 5465 5464 5463 5462 5461 5461 5460 5460 5459 5459 5458 5457 5456 5455 5454 5453 5452 5451 5451 5450 5450 5450 5451 5451 5452 5452 5453 5454 5455 5456 5456 5456 5457 5458 5458
5518 5515 5512 5508 5504 5501 5499 5497 5494 5492 5489 5487 5485 5483 5482 5481 5479 5477 5474 5472 5471 5469 5467 5466 5464 5462 5461 5460 5458 5457 5456 5455 5454 5454 5454 5453 5453 5452 5451 5450 5449 5448 5447 5447 5446 5445 5444 5444 5444 5444 5445 5445 5446 5446 5447 5448 5448 5449 5449 5450 5451 5451 5452
5509 5506 5503 5499 5496 5493 5491 5489 5487 5484 5482 5480 5477 5475 5474 5473 5472 5470 5467 5465 5464 5462 5461 5459 5457 5455 5454 5453 5451 5450 5449 5448 5448 5447 5447 5446 5446 5445 5444 5443 5442 5442 5441 5440 5440 5439 5438 5438 5438 5438 5439 5439 5440 5440 5441 5441 5442 5442 5443 5444 5444 5445 5445
5501 5497 5494 5491 5488 5485 5483 5481 5479 5476 5474 5472 5470 5468 5466 5465 5464 5462 5460 5458 5457 5455 5454 5452 5450 5449 5447 5446 5445 5443 5443 5442 5442 5441 5440 5440 5439 5438 5437 5436 5436 5435 5435 5434 5433 5433 5432 5432 5432 5432 5433 5433 5434 5434 5434 5435 5435 5436 5436 5437 5438 5439 5439
5492 5489 5486 5483 5480 5477 5474 5472 5470 5468 5466 5464 5462 5460 5458 5458 5457 5455 5453 5451 5449 5448 5447 5445 5444 5442 5440 5439 5438 5437 5436 5436 5435 5435 5434 5433 5432 5432 5430 5430 5429 5429 5428 5427 5427 5427 5426 5426 5426 5426 5426 5427 5427 5428 5428 5428 5428 5429 5430 5431 5431 5432 5433
5484 5481 5477 5474 5472 5469 5467 5464 5462 5460 5458 5456 5454 5452 5451 5450 5449 5447 5445 5443 5442 5441 5440 5438 5437 5435 5433 5432 5431 5430 5429 5429 5428 5428 5427 5426 5425 5424 5423 5423 5423 5422 5421 5421 5420 5420 5420 5420 5420 5420 5420 5420 5421 5421 5421 5421 5422 5422 5423 5424 5425 5425 5426
5476 5473 5469 5466 5464 5461 5459 5457 5454 5452 5450 5448 5447 5445 5443 5442 5441 5440 5438 5436 5435 5434 5433 5431 5430 5428 5426 5425 5424 5424 5423 5422 5422 5421 5420 5419 5418 5417 5416 5416 5416 5415 5415 5414 5413 5413 5413 5413 5413 5413 5413 5414 5414 5414 5414 5414 5415 5416 5417 5417 5418 5418 5419
5467 5465 5462 5459 5456 5453 5451 5449 5447 5445 5442 5440 5439 5437 5436 5434 5433 5432 5431 5429 5428 5426 5425 5424 5423 5421 5419 5418 5417 5416 5416 5416 5415 5414 5413 5412 5411 5409 5409 5409 5408 5408 5407 5407 5406 5406 5406 5406 5406 5406 5406 5407 5407 5407 5407 5407 5408 5409 5410 5410 5411 5411 5412
5459 5456 5454 5451 5448 5446 5443 5441 5439 5437 5435 5433 5431 5429 5428 5426 5425 5424 5423 5421 5420 5419 5417 5416 5415 5413 5412 5410 5409 5409 5408 5408 5408 5406 5405 5404 5403 5402 5402 5401 5401 5401 5400 5400 5399 5399 5398 5398 5399 5399 5399 5399 5399 5399 5400 5400 5401 5401 5402 5402 5403 5404 5404
5450 5448 5445 5443 5440 5438 5435 5433 5431 5429 5427 5425 5423 5421 5419 5418 5417 5415 5414 5413 5412 5410 5409 5408 5406 5405 5404 5403 5401 5401 5400 5400 5400 5398 5397 5396 5396 5395 5394 5393 5393 5393 5392 5392 5392 5391 5391 5391 5391 5391 5391 5391 5392 5392 5392 5392 5393 5393 5394 5394 5395 5396 5396
5441 5439 5436 5434 5432 5429 5427 5425 5423 5421 5419 5417 5415 5413 5411 5410 5408 5406 5405 5404 5403 5401 5400 5398 5397 5396 5396 5394 5393 5392 5392 5391 5391 5389 5389 5388 5388 5387 5386 5386 5385 5385 5384 5384 5384 5384 5383 5383 5383 5383 5383 5383 5384 5384 5384 5384 5384 5385 5386 5386 5387 5387 5388
5432 5430 5428 5426 5423 5421 5419 5416 5414 5412 5410 5408 5406 5404 5403 5401 5399 5397 5396 5394 5393 5391 5390 5389 5387 5387 5386 5385 5384 5383 5382 5382 5381 5380 5379 5379 5379 5378 5378 5377 5377 5377 5376 5376 5376 5375 5375 5374 5374 5375 5375 5375 5375 5375 5376 5376 5376 5376 5377 5378 5379 5379 5379
5423 5421 5419 5417 5414 5412 5410 5407 5405 5403 5401 5399 5397 5395 5393 5392 5390 5387 5386 5384 5383 5381 5380 5379 5377 5376 5376 5375 5374 5373 5372 5372 5371 5370 5369 5369 5369 5369 5368 5367 5367 5367 5367 5367 5367 5366 5366 5366 5366 5366 5366 5366 5366 5366 5367 5367 5368 5368 5369 5369 5370 5370 5371
5415 5412 5410 5407 5405 5402 5401 5398 5396 5393 5391 5389 5387 5385 5383 5381 5379 5377 5375 5373 5372 5370 5369 5368 5367 5365 5364 5364 5363 5362 5361 5361 5360 5360 5359 5359 5359 5359 5358 5357 5357 5357 5357 5357 5357 5357 5357 5356 5357 5357 5357 5357 5357 5357 5357 5358 5359 5359 5360 5360 5361 5361 5362
5405 5403 5400 5398 5395 5392 5390 5388 5386 5383 5381 5378 5376 5374 5372 5370 5368 5366 5363 5361 5360 5359 5357 5356 5354 5353 5353 5352 5351 5351 5350 5349 5349 5348 5348 5348 5348 5348 5347 5347 5347 5347 5347 5347 5347 5347 5347 5347 5347 5347 5347 5348 5348 5348 5348 5348 5350 5351 5351 5351 5351 5351 5352
5396 5393 5390 5387 5385 5382 5379 5376 5374 5372 5369 5367 5365 5362 5360 5358 5355 5353 5351 5349 5348 5346 5345 5343 5342 5341 5340 5339 5339 5338 5337 5337 5337 5336 5336 5336 5336 5336 5336 5336 5336 5336 5336 5336 5337 5337 5337 5337 5337 5337 5337 5338 5338 5339 5339 5339 5340 5341 5341 5342 5342 5342 5342
5385 5382 5380 5376 5374 5371 5368 5365 5362 5360 5357 5355 5352 5350 5348 5345 5342 5340 5338 5337 5335 5333 5332 5330 5329 5328 5327 5326 5325 5325 5325 5324 5324 5324 5323 5324 5324 5324 5324 5324 5324 5325 5325 5325 5326 5326 5326 5326 5326 5326 5327 5327 5328 5329 5329 5329 5329 5330 5331 5332 5332 5331 5331
5374 5371 5368 5365 5362 5359 5356 5353 5350 5347 5344 5342 5339 5336 5334 5331 5329 5327 5325 5323 5321 5319 5318 5316 5315 5314 5313 5312 5312 5312 5312 5311 5311 5311 5311 5311 5311 5312 5312 5312 5312 5313 5313 5313 5314 5314 5315 5315 5315 5315 5316 5316 5317 5318 5318 5318 5319 5319 5320 5321 5321 5321 5321
5363 5359 5356 5353 5350 5347 5344 5341 5338 5335 5332 5329 5326 5323 5321 5318 5315 5313 5311 5309 5307 5306 5304 5302 5301 5300 5300 5299 5298 5298 5298 5298 5298 5298 5298 5298 5299 5299 5300 5299 5300 5301 5301 5302 5302 5303 5303 5304 5304 5305 5305 5305 5306 5307 5308 5308 5308 5309 5309 5310 5310 5310 5311
5352 5348 5345 5342 5338 5335 5332 5329 5326 5323 5320 5317 5314 5311 5308 5305 5302 5300 5298 5296 5294 5292 5291 5289 5288 5287 5286 5286 5285 5285 5285 5285 5285 5285 5285 5286 5287 5287 5287 5287 5287 5288 5289 5290 5290 5291 5292 5292 5293 5293 5293 5294 5295 5296 5296 5297 5297 5298 5298 5298 5299 5299 5300
Wind_Speed
54 54 55 55 55 55 54 54 53 53 53 54 54 55 56 56 56 56 55 55 55 55 55 55 54 53 52 52 53 52 52 52 53 53 54 54 55 57 58 59 59 59 58 57 57 58 60 61 61 60 61 61 61 61 61 60 59 58 57 57 56 56 56
55 55 56 56 56 55 55 54 54 54 55 55 55 56 58 58 57 57 57 57 57 57 57 57 56 55 54 55 55 54 54 53 54 55 55 56 58 59 60 62 62 62 62 60 60 61 62 62 62 61 61 61 60 60 59 59 58 57 56 55 55 55 56
56 57 57 56 55 55 55 54 54 55 55 56 57 58 59 59 59 58 59 59 59 59 58 57 57 56 55 55 55 54 53 52 53 54 55 57 58 60 63 65 66 66 65 64 62 62 62 61 61 61 60 60 58 57 56 55 55 55 55 54 54 55 56
57 57 56 56 55 55 55 55 55 56 56 58 59 60 61 60 60 60 61 61 61 60 59 58 57 56 56 55 53 52 51 52 53 54 55 57 59 61 64 66 66 66 64 63 61 60 59 58 57 57 57 56 54 52 52 52 53 54 54 55 55 55 56
57 56 56 55 55 54 55 55 56 57 58 59 61 62 62 62 62 62 63 62 61 60 58 57 57 56 55 54 52 52 52 53 54 55 56 58 59 61 63 64 64 61 58 55 54 53 52 51 51 51 51 50 50 50 50 51 52 53 54 54 54 54 55
56 55 55 55 55 55 56 57 57 58 59 61 62 63 63 63 64 64 64 63 61 59 57 57 56 56 54 52 52 52 53 54 55 56 57 57 58 58 58 57 55 52 49 46 44 44 44 45 46 47 48 48 48 50 50 51 52 53 53 54 53 53 53
55 55 55 55 56 57 57 58 59 59 60 62 63 63 64 65 65 65 64 63 60 58 57 57 56 54 53 52 52 53 54 54 54 54 54 53 52 50 48 47 45 43 42 41 41 42 42 44 46 47 47 48 49 50 50 51 51 52 52 52 52 52 52
56 56 56 57 58 58 59 59 60 61 62 63 64 65 65 66 66 65 63 61 59 58 56 54 53 52 52 52 52 51 51 51 51 51 50 48 44 42 41 40 40 40 41 41 42 44 45 46 46 47 48 49 50 50 50 50 51 51 50 49 49 50 51
57 57 58 59 60 60 61 61 61 62 64 65 65 66 66 66 65 63 60 59 56 53 51 50 50 51 52 51 49 48 47 47 48 47 45 41 39 39 39 40 41 42 43 44 46 48 49 48 47 47 49 50 50 50 50 50 50 50 48 48 48 48 49
58 59 60 61 62 62 62 63 64 65 66 66 66 66 66 65 63 60 58 56 53 50 49 48 49 50 51 49 47 46 46 46 46 44 41 40 40 41 42 44 45 45 46 48 50 50 50 49 48 48 49 50 50 50 50 50 50 49 48 47 47 47 48
61 62 63 63 63 64 65 66 66 67 67 67 67 66 64 62 59 58 58 57 55 53 50 49 48 49 49 48 47 48 48 48 46 43 41 43 44 44 44 45 47 47 48 49 49 49 49 49 48 48 49 50 50 50 50 50 49 48 47 47 46 46 47
64 64 64 65 65 66 67 67 68 68 67 67 65 63 60 58 57 56 56 55 53 52 50 49 49 49 48 49 50 50 50 49 47 44 44 45 45 45 45 46 47 49 49 49 48 49 49 48 48 48 49 49 50 50 50 50 49 48 47 47 46 46 46
66 66 66 67 67 68 68 69 68 68 66 64 61 59 56 54 53 52 52 51 50 50 50 50 50 50 50 51 52 52 51 50 47 46 47 48 48 48 48 48 49 49 49 48 48 48 48 47 46 47 47 47 49 50 50 49 48 47 47 47 47 46 47
68 68 68 68 69 69 70 69 68 65 62 59 56 54 52 50 49 47 47 48 48 48 49 49 50 50 51 52 53 52 51 50 49 48 49 49 49 49 48 48 48 48 48 49 48 46 45 44 44 45 45 46 47 48 49 48 46 46 46 46 46 46 48
69 69 69 70 70 70 69 67 64 61 58 55 53 51 50 48 46 44 44 45 45 46 47 48 49 50 51 52 54 54 53 52 51 50 49 48 48 47 46 46 46 47 48 48 45 43 42 42 43 43 44 45 47 47 46 45 44 44 44 45 45 46 47
70 70 70 71 70 68 65 63 60 58 55 53 52 51 50 48 46 44 44 43 42 42 43 45 47 49 51 53 55 55 55 53 51 49 48 47 46 45 45 45 45 46 47 46 43 41 40 40 41 41 42 44 46 45 44 43 43 43 42 43 44 44 46
70 71 70 69 67 64 62 60 57 56 54 53 52 52 51 49 47 46 44 42 41 41 42 43 44 46 48 50 51 52 51 50 49 48 47 46 45 45 45 45 45 45 45 44 42 40 39 38 38 39 41 43 44 43 41 41 42 41 41 41 42 43 44
71 70 67 65 63 62 60 58 56 55 53 53 53 52 51 49 47 46 45 43 42 41 42 43 44 44 44 45 46 47 47 46 46 45 45 44 44 45 46 46 45 44 44 43 42 40 38 37 37 38 40 41 41 40 40 40 40 39 40 40 41 42 44
70 66 64 62 61 60 59 58 56 55 53 53 53 52 51 49 47 47 46 45 43 42 42 43 43 43 43 42 43 44 44 44 44 44 44 44 44 45 46 46 45 43 43 42 41 40 39 37 36 38 39 40 40 39 39 40 40 40 40 40 41 42 42
67 64 62 61 60 59 59 58 56 55 54 53 53 52 51 49 47 46 47 46 45 43 42 42 42 42 42 42 43 43 43 43 43 44 44 44 44 45 45 45 44 43 42 42 41 41 40 38 37 38 40 41 40 40 40 40 40 40 40 41 41 41 42
65 63 62 61 60 59 58 57 56 54 54 54 53 52 51 49 47 46 46 46 45 43 42 41 41 41 42 43 43 43 43 43 43 43 44 44 44 45 45 45 45 44 42 42 41 41 41 40 39 39 41 42 42 41 41 42 42 42 42 42 42 42 42
64 62 61 60 60 59 57 56 55 54 53 53 52 52 51 49 46 45 45 45 44 42 41 40 41 42 43 43 43 44 44 43 43 44 45 45 46 46 46 46 46 45 44 42 41 41 42 42 42 42 42 42 43 43 43 43 44 43 43 43 43 43 44
63 61 61 60 60 58 56 55 54 54 54 54 53 52 51 49 46 44 43 44 43 42 41 42 42 43 44 45 45 45 45 45 45 46 46 46 48 48 48 48 47 47 45 44 43 42 42 43 44 44 44 44 44 44 45 45 45 45 45 45 45 45 46
63 62 60 59 58 57 57 56 55 55 55 55 55 53 51 50 47 45 44 44 44 44 44 44 44 45 46 46 46 46 46 46 46 47 48 48 48 49 48 48 48 47 46 45 44 43 43 44 44 45 46 46 45 45 46 46 47 47 47 47 48 48 48
64 62 60 58 57 57 57 57 56 56 56 56 56 54 53 51 50 48 46 46 46 47 48 48 47 47 47 47 47 47 47 46 47 48 49 49 49 49 48 48 47 46 46 46 45 45 45 45 45 46 47 47 47 47 47 47 48 48 48 49 49 50 50
64 62 60 58 57 57 57 56 56 56 56 56 55 54 54 53 52 51 50 50 50 51 51 51 50 50 50 50 49 49 49 48 48 49 50 50 50 49 49 49 48 47 46 46 46 46 46 46 47 48 48 49 49 48 48 48 49 50 50 51 51 52 52
63 61 59 57 57 57 57 57 56 56 56 56 56 55 55 55 55 55 54 54 54 54 54 54 54 54 53 53 53 52 52 51 51 51 51 51 51 51 51 50 50 50 49 48 48 48 48 48 48 49 50 51 51 51 50 50 51 51 51 52 53 53 53
60 59 58 58 58 59 59 59 59 59 59 59 59 58 58 58 57 57 57 57 57 57 57 57 57 57 57 57 56 56 55 54 54 54 54 54 53 53 53 53 53 53 52 52 51 51 50 50 50 50 51 51 52 53 53 53 53 53 53 53 53 54 54
59 58 58 59 60 61 61 61 62 62 62 62 62 61 61 60 60 60 60 60 60 60 60 60 60 60 59 59 59 59 58 58 57 57 57 57 57 56 56 56 56 55 55 55 55 54 54 54 53 53 52 53 53 54 54 55 55 55 55 54 54 54 55
61 61 62 62 63 64 64 64 64 65 65 65 65 65 64 64 64 64 64 64 64 64 64 63 63 63 62 61 60 60 60 60 60 60 60 60 60 60 60 60 60 59 59 58 58 58 58 58 57 56 56 55 55 55 56 56 56 56 56 56 55 55 56
64 64 64 65 66 66 67 67 67 68 68 68 68 68 68 68 68 69 69 69 69 68 67 66 66 65 64 63 62 62 62 62 62 63 63 63 63 63 64 64 63 63 62 62 62 62 62 61 61 60 60 59 58 57 57 57 57 57 57 57 57 57 57
66 67 67 68 68 69 70 70 70 71 71 71 71 72 72 72 72 72 72 72 72 71 70 70 69 68 67 66 65 64 64 64 63 64 64 65 65 65 66 66 66 66 65 65 65 65 65 64 64 63 63 62 62 61 60 59 58 58 58 58 58 59 59
70 70 70 71 72 72 73 73 74 74 74 75 75 75 75 76 76 76 75 75 74 73 73 72 71 70 69 68 67 66 66 65 65 65 65 66 66 66 67 67 67 68 67 67 67 67 66 66 66 66 65 65 64 64 63 62 62 61 61 61 61 62 62
72 73 73 73 74 74 75 75 75 76 76 76 76 76 76 76 76 76 75 75 74 73 72 71 71 70 69 68 67 67 66 66 66 66 67 67 67 67 68 68 68 68 68 68 68 67 67 67 67 67 67 67 66 66 66 65 65 64 64 63 64 65 65
73 73 74 74 74 74 74 74 74 74 74 74 74 74 73 73 73 72 72 72 71 71 70 70 69 68 68 67 67 66 65 65 65 65 66 66 67 67 68 68 68 68 68 68 68 68 68 68 68 68 68 68 68 68 67 67 67 67 67 67 67 67 67
72 72 72 72 72 72 72 72 71 71 71 71 71 71 71 71 70 70 70 70 70 70 70 69 69 68 68 67 66 66 65 64 64 64 64 64 65 65 66 67 67 67 67 67 67 67 67 67 67 67 67 67 68 68 69 69 69 69 69 69 69 69 69
Wind_Direction
302 302 303 303 303 304 304 304 304 303 302 301 300 301 302 303 303 302 301 301 301 301 301 301 300 299 297 296 295 292 289 285 281 278 277 275 274 272 270 269 267 266 266 265 264 264 264 265 265 265 266 266 266 266 267 267 268 267 267 267 267 267 267
302 302 303 303 303 304 304 304 303 302 301 300 301 301 302 302 302 301 301 301 301 301 301 300 299 298 296 295 294 291 286 282 279 277 275 274 273 272 271 270 269 268 267 266 265 264 264 266 267 267 267 267 267 267 267 267 268 267 267 267 266 266 265
301 302 302 303 303 304 304 303 302 301 301 301 301 302 302 302 301 300 300 300 300 300 300 299 298 296 294 293 290 286 282 279 277 277 276 275 274 273 272 271 270 270 269 268 266 265 266 267 268 268 269 269 268 268 267 267 267 267 267 267 265 265 264
302 302 303 303 303 304 303 303 302 301 301 302 302 302 301 301 300 300 300 300 300 300 299 297 295 293 291 289 285 280 277 277 277 276 276 275 275 274 273 273 273 273 272 272 271 270 270 270 271 270 270 269 268 268 267 266 266 266 266 266 266 266 265
302 303 304 304 304 304 303 302 302 302 302 302 302 302 300 300 299 300 300 300 299 298 297 294 292 290 288 284 280 277 276 277 276 276 276 276 275 275 275 276 277 278 278 277 276 276 275 275 274 271 269 268 268 268 267 265 265 265 266 266 267 267 266
304 305 305 305 304 304 303 302 302 302 302 302 302 301 300 300 300 300 299 299 298 297 294 292 289 287 284 280 278 277 277 277 277 277 277 276 276 277 278 279 280 281 281 280 280 279 278 277 275 270 267 268 268 267 266 265 266 266 267 267 267 266 266
306 306 306 305 304 303 303 302 302 302 302 302 301 301 300 300 300 300 299 298 297 295 293 290 287 284 281 279 278 278 278 278 278 278 278 278 279 280 281 281 281 281 281 281 281 281 280 278 275 270 269 269 268 267 266 267 267 267 267 266 265 264 264
307 306 306 305 304 303 303 303 302 302 302 301 301 301 301 301 300 299 298 297 295 293 290 287 284 282 280 280 280 280 279 279 279 279 279 280 281 281 281 281 281 280 280 280 282 283 282 279 276 273 270 269 268 267 267 267 267 266 265 264 263 263 263
307 306 305 305 304 304 303 303 302 302 302 302 302 302 301 301 300 298 297 294 292 290 287 284 282 281 281 282 282 281 280 280 280 280 279 279 281 282 282 281 281 280 279 280 283 284 283 280 277 275 273 270 268 267 267 266 265 263 261 260 260 261 261
306 306 305 305 305 304 304 303 302 302 303 303 303 302 301 300 298 296 294 291 290 290 287 282 280 281 283 283 281 279 279 279 280 280 278 279 283 285 285 283 280 280 281 282 283 283 281 279 276 274 273 270 267 266 266 265 263 260 258 258 259 261 261
306 305 305 305 305 304 304 304 304 304 304 304 303 302 300 299 297 294 291 289 289 289 285 281 280 282 284 283 280 278 279 279 279 280 279 281 284 286 287 284 280 280 283 284 282 281 279 277 274 272 271 269 266 265 264 262 260 258 258 260 261 261 261
306 305 305 305 305 305 305 305 305 305 304 303 302 300 299 298 297 294 291 288 287 286 283 281 280 282 282 281 280 280 280 280 279 278 278 280 283 284 285 284 281 283 285 284 282 280 278 276 272 269 270 269 264 262 262 260 258 258 259 260 260 261 261
305 305 305 305 305 305 306 306 305 304 302 301 299 299 299 298 296 294 290 287 284 282 281 280 280 280 280 280 281 281 280 279 278 275 275 277 281 282 283 283 283 285 285 284 283 281 277 274 270 267 269 268 264 261 261 259 257 258 259 260 260 260 259
305 305 305 305 306 306 307 306 303 301 299 298 298 299 298 298 297 294 291 287 283 281 280 279 279 280 280 281 282 282 280 278 277 276 278 280 281 282 282 283 285 286 286 285 283 279 275 272 269 267 267 267 264 261 259 258 258 259 260 261 260 259 258
304 305 305 306 307 307 305 303 300 298 297 297 298 298 297 297 297 295 292 289 287 284 282 280 280 280 281 281 282 282 281 279 278 279 281 282 281 282 282 284 285 285 285 285 282 278 275 272 269 267 267 266 264 260 257 257 259 261 261 261 260 259 258
304 305 306 307 306 305 302 299 297 297 297 297 297 295 295 297 297 296 294 291 289 287 284 282 280 279 280 280 281 282 283 282 281 281 282 281 281 282 284 284 285 285 285 284 280 276 275 273 270 268 266 265 262 258 257 258 260 260 260 260 260 259 258
305 306 306 305 304 301 299 297 296 296 296 296 295 294 295 296 297 296 294 292 289 288 286 283 281 280 279 279 280 281 281 281 281 281 281 281 282 284 285 286 285 285 285 282 277 274 275 274 271 268 266 263 259 257 258 260 260 260 260 260 260 260 259
306 306 305 303 300 298 297 297 297 296 295 295 294 294 295 296 295 295 294 291 289 288 287 285 283 281 280 279 278 278 278 278 279 280 281 282 282 284 285 286 285 284 283 280 275 272 273 273 270 268 265 261 259 259 260 260 260 260 260 260 260 260 259
305 304 302 300 299 298 297 297 296 294 294 295 295 294 295 295 294 293 292 290 288 288 287 285 283 282 281 280 279 278 278 278 278 280 281 282 282 283 285 286 285 283 282 280 275 271 271 271 269 267 264 261 260 260 260 260 260 260 260 260 260 259 259
304 302 301 300 299 299 298 297 295 293 294 295 295 295 295 294 293 292 291 289 288 288 286 285 283 282 281 282 281 281 281 281 280 280 281 281 282 283 284 285 286 284 281 279 275 271 269 267 266 264 263 261 260 260 260 260 260 260 260 260 260 260 260
302 301 300 300 300 300 298 296 295 294 295 296 296 295 294 293 292 290 289 288 287 286 285 283 282 282 281 281 282 282 283 283 282 282 282 283 283 283 283 284 285 285 282 279 276 272 269 266 264 262 262 262 261 261 260 260 259 260 260 261 261 261 261
301 300 300 301 301 300 298 297 296 295 295 296 296 294 294 293 291 290 289 287 285 284 283 283 282 282 282 282 282 282 283 283 283 283 283 283 283 283 283 282 283 284 283 279 276 273 270 267 264 262 261 261 262 262 262 261 261 260 260 261 261 261 261
300 300 301 300 300 299 298 297 296 295 295 295 295 294 293 292 291 290 289 287 284 284 284 284 283 282 282 282 282 282 282 282 282 282 282 282 283 282 282 281 281 281 281 280 276 273 270 268 266 264 262 261 261 262 262 262 262 262 261 261 261 261 260
299 299 299 298 298 297 297 295 295 294 294 295 294 293 292 292 291 290 289 286 284 283 284 285 284 283 282 281 281 281 280 280 281 281 281 281 282 282 281 280 279 279 278 278 276 273 269 267 266 265 264 262 261 261 262 262 263 263 263 262 262 262 261
298 297 296 295 295 296 295 294 293 293 293 293 293 292 291 291 290 288 287 286 284 283 284 285 284 283 282 281 281 281 281 280 279 279 279 279 280 280 280 279 278 277 276 275 275 273 270 267 265 264 264 263 262 261 261 262 262 262 262 262 262 262 262
296 295 293 292 293 294 294 293 293 293 293 292 292 291 290 289 288 287 286 284 283 283 283 283 282 281 281 281 281 281 281 280 279 277 277 276 276 277 278 278 277 277 275 274 273 272 271 269 266 264 262 262 261 261 261 261 261 261 261 261 261 261 261
295 293 291 291 292 293 294 293 293 293 292 292 291 290 289 288 287 286 285 284 283 282 282 281 281 280 280 280 280 280 279 279 277 276 275 274 273 273 274 275 275 275 274 273 272 271 270 269 267 265 263 261 260 260 260 260 260 260 260 261 261 261 262
294 292 291 291 291 292 293 293 293 292 291 291 290 289 288 287 286 285 285 284 283 282 282 282 281 281 280 279 278 278 277 276 275 274 273 272 271 271 271 271 271 272 272 272 271 270 269 268 266 265 264 263 262 260 260 259 260 260 260 261 261 262 262
294 293 292 292 292 292 292 292 292 291 290 290 289 288 287 286 286 285 285 284 284 283 283 283 282 282 281 279 278 276 275 274 273 272 271 271 270 269 268 268 268 269 269 269 269 269 268 267 267 266 265 264 263 262 261 260 260 261 261 261 261 262 262
295 294 293 293 293 292 292 291 291 291 290 289 288 287 286 286 285 285 285 285 285 285 284 283 283 282 280 279 277 275 274 273 272 271 270 269 269 268 268 267 267 267 267 267 267 267 267 267 267 266 266 265 264 263 262 261 261 261 261 262 262 263 263
295 295 294 294 293 293 292 292 291 290 290 289 288 287 287 286 286 286 286 286 286 285 284 284 282 281 280 278 276 274 273 271 270 269 269 268 268 267 267 267 266 266 265 265 265 266 266 266 266 266 266 265 265 264 263 262 261 261 261 262 262 263 264
296 295 295 295 294 293 293 292 291 291 290 289 289 288 287 287 286 286 285 285 285 284 283 283 282 281 279 278 276 274 272 270 269 268 267 267 266 266 266 265 265 265 265 264 264 264 264 265 265 266 266 266 266 266 265 264 262 261 261 261 262 262 263
297 296 296 295 294 294 293 293 292 291 291 290 289 288 288 287 286 285 285 284 283 283 282 281 280 279 278 277 275 273 271 269 268 266 265 265 264 264 264 264 264 264 264 264 264 263 263 263 264 265 265 265 266 266 266 265 264 263 261 261 261 262 262
297 297 296 296 295 294 294 293 292 292 291 290 289 288 287 286 286 285 284 283 283 282 281 280 279 278 277 276 274 272 271 269 267 266 265 264 263 263 263 262 262 262 262 262 262 263 263 263 263 264 264 265 265 265 265 265 265 265 264 262 262 262 263
298 297 297 296 295 295 294 293 292 291 291 290 289 288 287 287 286 285 284 283 283 282 281 280 279 278 277 275 274 273 271 270 268 267 266 265 264 263 263 262 262 262 262 262 262 263 263 264 264 265 265 265 266 265 265 265 265 265 265 264 264 263 263
298 297 296 296 295 294 294 293 292 292 291 290 290 289 288 287 286 285 284 283 282 281 280 279 278 277 276 275 274 273 272 270 269 268 267 266 265 264 263 263 262 261 261 261 261 262 263 264 265 265 265 265 265 265 265 264 264 264 265 265 264 264 264